STARLINK-32122, 60285

Orbit data source: Space-Track

STARLINK-32122, 60285 is a payload satellite owned by SpaceX/Seattle (US) in LEO that was launched on Sun, 28 Jul 2024 UTC via an FALCON 9 launch vehicle from the Air Force Eastern Test Range (AFETR). Payload-class satellites include a variety of spacecraft equipped with specific instruments for various scientific and technological missions. These include communications satellites like Starlink; space stations such as the ISS; scientific satellites like the Hubble; Earth observation satellites from companies like Planet Labs, Umbra, and HawkEye 360; GPS; miniature CubeSats for education and research; and military/defense satellites.

Loading next visibility...
Identifier
60285, 2024-132H
Orbit
LEO
Country
Flag of USUS
Related business
Manufacturer
SpaceX/Seattle
Mission
Operational Commercial Communications
Bus & Motor
STARLINK V2M, Unknown motor
Mass
730 kg wet, ~700 kg dry
Launch date (UTC)
2024-07-28 (1 year ago)
Launch vehicle
FALCON 9
Launch site
Air Force Eastern Test Range (AFETR)
Object type
Payload
Rocket body
Debris
Shape & HBR
Box + 2 Pan, 17.7 m
Radar Cross Section
33.884 m², Large (>1 m²)

Expand to show TLE details & history
Last TLE update: 1 day ago

TLE from 1 day ago
0 STARLINK-32122
1 60285U 24132H   25346.58346266  .00000644  00000-0  33909-4 0  9995
2 60285  53.1613  97.0626 0001299  83.8923 276.2226 15.30172389 78221
Epoch: 2025-12-12T14:00Z
TLE epoch observation values (Epoch: 2025-12-12T14:00:11.173Z)
Latitude
-0.00002°
Longitude
165.49303°
Altitude
476.101 km
Speed
7.629 km/s
True Right ascension
06h 28m 15s
True Declination
0° 00' 00"
Sunlit
Object was in full shadow at epoch
Visualization orbit readout
Latitude
Unknown
Longitude
Unknown
Altitude
Unknown
Speed
Unknown
Apparent Right ascension
Unknown
Apparent Declination
Unknown
Sunlit
N/A
Visualization observer readout
Local Sidereal Time
16:29:46
Azimuth
Unknown
Elevation
Unknown
Doppler factor
Unknown
Orbital elements
Apogee altitude
476.444 km
Perigee altitude
474.663 km
Semi-major axis
6,853.691 km
Eccentricity
0.00013
Inclination
53.1613°
RAAN
97.0626°
Arg. of periapsis
83.8923°
True anomaly
276.2078°
Mean anomaly
276.2226°
Eccentric anomaly
276.2152°
Mean motion
3.82522 °/min
Orbital period
94.11 mins
BSTAR
0.000033909
Loading maneuver chart data...
Computing Atmospheric mass density...
Loading historical data...
Loading historical data...
Loading historical data...
Loading historical data...
Loading historical data...
Loading historical data...
Loading historical data...

Documentation

Showing up to 5 results
|